Wind_Speed
16 16 15 15 14 12 13 14 14 14 14 15 16 17 18 18 17 15 12 9 7 8 10 10 9 10 10 11 11 11 12 11 12 12 12 11 11 9 9 10 9 8 8 8 7 7 9 10 9 9 9 8 8 9 8 8 8 8 9 10 11 12 13 14 14 14 14 14 13 13 12 12 11 12 13 13 14 14 14 14 13 14 15 15 15
17 16 15 14 13 12 13 15 15 15 14 15 15 16 17 18 17 15 12 9 7 7 11 11 10 11 10 9 11 12 12 11 11 11 11 11 10 9 9 9 9 9 8 8 7 7 8 9 9 9 8 8 8 9 9 10 11 11 12 12 13 14 14 15 15 15 15 15 15 15 14 14 14 13 13 13 13 14 14 14 13 14 15 15 15
16 16 15 14 14 13 13 14 16 16 15 15 16 15 15 16 15 13 11 9 8 8 11 12 11 11 11 10 11 12 11 11 11 11 11 11 10 10 10 9 9 8 8 8 7 7 7 8 8 8 9 9 10 11 11 12 12 12 12 12 13 13 13 14 14 14 13 14 14 14 14 15 15 15 14 14 13 13 13 13 13 14 14 14 15
17 16 15 15 15 14 13 14 15 15 15 15 16 16 15 14 12 11 10 9 8 10 13 12 11 12 12 12 12 12 12 11 11 11 11 11 11 11 11 10 9 8 8 8 8 8 7 8 9 10 10 10 10 12 12 11 11 10 10 10 11 10 10 10 10 10 10 10 10 11 11 12 13 13 14 14 14 13 12 12 13 14 14 14 13
17 16 16 16 16 15 14 14 14 15 14 14 15 15 14 13 11 9 9 8 9 13 14 13 12 12 12 13 14 13 12 11 11 11 11 11 12 11 11 10 10 9 8 9 10 9 9 9 10 10 10 9 10 11 10 9 9 8 8 9 8 6 6 6 6 6 6 6 7 7 8 9 10 11 11 12 14 13 12 11 11 12 13 13 13
18 17 17 17 16 16 15 13 13 14 14 13 13 13 13 11 10 10 10 8 11 15 15 14 13 13 13 14 14 14 12 11 11 11 12 11 11 11 10 11 11 11 10 10 10 9 9 9 9 10 9 9 9 9 7 7 7 6 6 7 6 3 3 3 3 3 3 3 4 5 5 6 8 9 10 11 12 12 12 11 11 12 12 12 12
19 18 18 18 17 16 15 14 13 13 14 14 12 12 13 12 11 12 12 11 13 15 15 14 14 13 14 15 15 14 13 12 12 12 12 11 10 10 11 12 12 12 11 10 9 9 9 8 8 9 8 8 7 7 5 5 4 4 4 4 3 2 0 1 2 3 3 2 2 2 3 4 5 7 8 9 10 10 10 10 10 11 11 11 11
20 19 20 19 18 16 16 15 13 14 15 15 14 14 15 15 14 14 13 13 15 16 15 14 14 14 14 14 15 14 13 12 12 13 13 11 10 10 12 13 12 11 11 10 9 8 7 7 7 7 7 7 6 5 4 3 3 2 2 2 1 2 2 2 3 3 3 3 3 2 2 2 3 5 6 7 7 8 8 9 10 10 11 11 11
21 20 20 19 17 17 17 16 15 15 16 16 16 16 17 17 15 14 14 14 15 16 15 14 14 14 13 13 14 14 13 13 12 13 14 13 12 12 12 12 11 11 10 9 8 6 6 6 6 6 7 6 5 5 6 5 3 2 2 1 1 3 5 5 5 4 4 4 4 3 3 3 3 5 6 6 7 6 6 7 8 9 10 10 10
23 21 20 18 17 18 18 17 17 16 17 18 18 17 17 18 16 13 12 13 14 16 16 15 14 13 12 11 12 13 13 13 13 14 14 13 13 13 13 12 11 10 10 8 7 6 6 5 5 5 6 6 6 6 7 7 5 4 3 1 3 5 6 5 3 4 4 4 3 4 4 4 4 6 6 6 6 6 5 6 7 8 9 9 11
25 22 20 19 18 20 19 18 20 18 19 20 19 18 17 16 15 14 13 13 14 16 16 15 14 13 11 9 9 11 13 13 13 14 14 14 14 13 13 12 11 9 9 8 6 5 5 5 4 4 5 5 6 6 6 7 6 4 3 3 5 6 4 2 2 2 3 2 2 3 3 3 4 6 7 7 6 6 5 6 6 7 8 11 13
27 23 22 21 20 21 21 20 21 20 20 21 19 17 17 16 15 15 15 14 12 15 16 16 15 13 11 10 8 8 10 12 13 13 13 13 13 14 12 10 10 10 9 7 6 5 4 4 4 4 4 5 5 5 5 5 5 4 4 6 6 5 2 1 2 2 2 3 2 2 2 2 3 5 7 8 7 6 6 5 6 9 11 12 11
28 25 23 22 21 22 23 22 22 21 21 21 19 17 17 16 15 16 17 16 14 15 17 18 16 13 11 11 9 7 6 7 9 11 13 13 12 13 12 10 9 10 9 7 6 4 4 4 4 4 4 5 5 4 3 3 6 7 6 7 6 3 2 3 3 2 2 2 1 1 1 2 4 6 8 9 8 7 7 8 10 12 12 11 8
28 27 25 25 23 23 24 24 22 21 20 18 17 18 18 18 19 19 18 18 17 17 19 16 13 11 10 9 7 6 5 4 5 8 11 12 13 10 9 9 9 10 9 7 6 4 3 3 3 3 4 5 5 5 5 6 8 9 8 6 3 2 4 5 3 3 5 5 4 4 4 5 8 9 10 10 8 8 10 10 11 10 10 9 8
28 27 26 27 26 25 26 25 23 21 19 18 18 19 19 20 21 21 19 17 17 18 19 15 14 15 11 6 3 3 2 3 4 5 8 10 12 9 7 8 10 10 10 8 7 6 4 4 3 3 5 6 7 7 8 9 9 8 6 4 3 3 5 5 5 5 7 7 6 7 7 9 11 11 11 11 10 10 10 9 9 8 8 8 7
27 26 27 28 27 27 27 26 24 21 20 20 21 22 22 22 22 22 21 19 17 18 17 15 16 16 9 3 2 2 1 2 4 3 5 7 10 9 8 9 10 10 10 9 8 7 6 4 3 4 6 8 8 9 9 9 8 7 5 4 5 6 6 6 6 7 8 8 8 9 11 12 13 13 12 12 11 11 10 8 8 7 6 6 4
26 26 27 27 27 26 27 28 26 23 22 21 23 23 22 22 22 22 22 20 19 20 17 14 16 17 11 6 3 1 2 3 5 3 4 7 8 8 8 9 11 10 10 11 10 8 6 5 4 6 8 9 9 9 8 7 5 5 5 5 7 7 7 6 6 8 9 9 9 10 12 12 13 14 12 11 11 10 8 6 5 5 4 3 2
26 26 26 27 27 26 26 27 27 26 24 22 23 23 22 22 22 22 22 20 20 21 19 15 17 17 12 9 5 2 5 7 4 1 3 7 8 8 8 8 10 9 9 11 11 10 8 6 5 7 9 9 9 8 6 5 4 4 5 6 7 7 6 6 7 9 11 10 9 10 11 12 12 12 11 10 10 7 5 3 3 3 3 2 2
25 25 26 26 26 25 24 25 27 26 25 24 23 22 22 21 21 22 21 21 20 22 22 18 18 18 13 10 3 3 10 12 6 2 3 4 7 9 9 8 9 9 9 11 11 11 9 7 6 8 9 9 8 6 5 4 4 4 6 6 7 6 6 7 8 10 11 11 9 9 10 11 11 11 10 10 7 4 2 2 3 3 4 4 4
24 25 25 26 26 26 24 24 26 26 25 25 23 22 22 21 21 21 21 22 21 21 23 22 21 20 17 11 5 4 12 13 9 8 4 2 4 6 7 9 9 10 10 11 11 12 11 8 8 8 9 8 7 6 5 4 4 5 6 6 6 6 7 7 9 11 12 11 9 9 10 10 10 10 9 7 4 2 2 3 4 4 5 5 5
24 24 25 26 26 25 24 24 24 25 25 23 22 22 22 22 21 21 22 23 22 21 22 24 23 21 19 13 6 8 13 10 10 10 5 3 4 4 6 8 8 10 11 11 11 12 11 9 9 9 9 8 7 6 5 5 5 6 7 6 6 6 7 7 8 10 12 12 10 9 9 9 9 8 7 5 3 3 4 4 5 5 5 5 5
25 25 25 26 26 25 24 24 24 24 24 22 22 22 22 22 20 20 22 23 23 22 22 23 24 22 20 16 11 12 12 7 10 11 6 4 3 4 8 8 7 10 12 11 11 12 12 11 10 10 10 8 7 6 5 6 7 7 6 6 5 5 6 7 6 8 11 12 11 10 9 9 8 7 6 5 4 4 5 6 6 5 5 5 6
25 25 26 26 26 26 25 23 23 24 24 23 23 22 21 21 20 19 22 23 23 23 22 22 23 22 21 18 16 16 14 12 15 17 10 6 5 5 8 9 8 10 12 11 11 12 13 12 11 11 10 8 7 6 5 6 8 8 6 5 5 5 5 6 6 7 9 10 11 10 10 9 8 7 6 5 5 6 6 6 6 6 6 6 6
25 26 27 28 27 27 26 24 23 24 24 24 23 22 21 21 20 19 20 22 22 22 22 22 22 22 22 20 18 18 18 18 20 21 17 13 11 8 8 10 8 8 11 11 10 11 13 12 12 12 10 8 8 7 6 7 8 8 7 6 5 5 6 6 7 7 8 9 9 9 9 8 7 6 6 6 6 6 6 6 6 6 7 6 6
24 27 28 28 28 27 26 25 24 24 25 24 24 23 22 21 20 19 20 21 22 22 22 23 22 22 23 21 18 17 19 19 19 21 18 16 15 11 9 11 7 6 9 12 11 11 13 14 13 13 12 10 9 9 8 8 9 9 8 7 6 6 6 6 7 7 8 8 8 8 8 7 7 7 7 7 7 7 6 6 6 6 7 7 7
25 28 28 28 28 26 25 25 25 24 25 25 24 23 23 22 19 19 21 21 21 21 21 22 22 22 23 22 19 17 19 18 17 19 19 17 18 16 13 8 6 6 7 10 12 11 13 16 16 15 14 12 11 10 10 10 10 10 9 8 7 7 6 6 6 7 7 7 7 8 8 8 8 7 7 6 6 6 6 6 6 6 6 6 6
27 28 28 28 27 25 24 24 24 24 25 26 24 23 23 22 20 19 21 21 21 20 21 21 21 22 23 23 20 18 19 18 16 17 20 20 19 22 20 10 3 4 4 7 11 13 15 16 17 17 16 14 12 11 11 11 11 11 10 9 8 7 6 6 6 6 6 6 6 7 7 7 7 7 7 6 6 5 5 5 5 5 5 5 5
27 27 27 27 26 24 22 23 24 25 26 26 25 23 22 22 21 20 20 21 21 20 19 19 19 20 22 22 20 19 19 18 16 15 18 20 19 22 25 19 10 4 3 4 7 12 16 17 18 19 18 15 13 12 12 12 12 11 11 11 9 8 7 7 6 6 6 6 7 7 7 7 7 7 7 6 6 5 4 4 4 4 4 4 4
26 26 27 27 25 22 21 22 24 25 25 25 24 23 22 22 22 21 20 21 21 19 19 18 18 19 20 20 19 18 17 18 17 16 17 20 19 20 24 26 20 10 4 4 6 10 15 17 18 19 19 18 14 12 12 13 13 13 12 11 10 9 9 8 7 7 7 8 8 8 8 7 7 7 6 6 5 4 4 3 3 3 3 3 3
24 25 28 27 23 22 21 21 23 24 24 24 22 22 22 21 21 21 21 21 21 20 19 18 17 19 19 18 18 17 16 18 18 17 18 20 19 20 24 27 25 18 11 6 6 11 16 18 19 18 18 20 17 13 13 14 14 14 13 12 11 10 10 9 9 8 8 9 8 8 7 7 6 6 5 5 4 4 3 3 3 2 2 2 2
23 24 26 26 23 23 23 21 22 24 24 23 22 21 21 21 21 21 20 21 21 20 19 17 17 18 17 17 17 17 17 17 16 16 18 19 20 21 24 26 25 22 19 11 5 10 17 19 21 20 17 18 18 16 14 14 15 14 14 13 12 11 11 10 10 10 10 9 8 8 7 7 6 5 5 5 4 4 4 4 3 3 2 2 1
23 24 25 25 24 24 24 23 22 24 24 22 22 22 21 20 21 20 20 20 20 19 18 17 16 16 16 16 17 18 17 16 15 15 16 18 20 21 24 27 25 21 19 14 6 8 16 18 19 20 18 16 18 18 16 16 17 16 15 14 13 13 13 12 11 11 11 10 9 8 7 7 6 6 5 5 5 5 5 5 5 4 4 3 3
24 24 24 24 25 26 25 23 23 24 24 22 22 22 21 20 20 19 19 18 18 17 16 16 16 16 16 16 16 18 18 16 15 15 16 16 18 21 24 26 26 22 19 17 10 6 12 16 16 19 19 17 18 19 19 18 19 18 17 16 15 15 14 14 13 13 12 12 11 10 9 9 8 7 7 7 7 7 7 7 7 7 7 7 6
24 24 24 24 25 26 25 23 23 25 24 22 21 22 21 20 20 19 18 18 17 17 17 17 17 16 16 16 16 17 17 16 16 15 16 16 16 20 24 26 26 24 21 19 13 8 10 14 15 17 19 19 19 20 20 20 20 20 19 19 18 17 16 16 16 15 15 14 13 12 12 11 11 11 10 10 11 11 11 11 11 11 10 10 10
24 24 24 25 24 24 24 25 25 25 23 21 21 21 21 21 20 19 18 18 17 17 17 18 17 16 16 15 15 15 16 16 15 15 17 17 15 18 23 26 25 23 22 20 15 11 11 14 16 18 20 20 20 20 20 20 21 21 20 20 18 18 18 19 19 18 17 17 16 15 15 15 14 14 14 14 15 15 16 16 15 15 14 14 13
22 24 25 24 24 23 24 25 25 24 22 21 21 21 21 21 19 18 17 17 17 16 17 17 17 17 16 16 15 15 15 16 16 16 16 16 17 18 20 21 21 20 20 19 17 16 16 16 18 20 21 21 20 20 20 21 22 22 21 20 20 19 20 20 21 20 19 19 19 18 18 18 18 18 18 18 19 19 20 20 19 19 18 17 17
23 26 26 24 24 24 25 26 24 23 22 22 21 21 21 20 18 17 17 17 17 16 16 17 17 17 16 15 15 16 16 16 16 17 16 16 17 17 16 18 21 20 18 18 20 21 20 20 19 19 20 19 20 21 21 21 22 23 22 22 21 21 21 22 23 23 23 22 22 22 22 22 22 22 22 22 23 23 23 23 23 23 22 22 21
24 27 27 26 24 25 27 26 24 23 22 22 21 20 20 19 17 16 16 16 17 16 15 15 16 16 15 14 14 16 17 17 17 17 16 16 16 16 15 17 21 22 18 16 19 21 22 22 20 19 20 20 20 21 22 21 21 23 24 24 23 23 23 24 25 25 25 25 26 26 26 26 26 25 26 26 26 26 26 27 27 27 27 26 25
24 26 28 28 26 26 28 27 24 23 23 22 21 20 19 18 17 16 15 15 16 15 14 14 14 14 13 12 13 14 16 16 16 16 16 16 16 17 16 16 20 23 20 17 17 17 18 20 19 19 20 20 21 20 20 20 20 21 22 23 25 26 26 26 26 26 26 27 27 27 28 28 28 28 28 29 29 30 30 30 31 31 31 31 30
25 28 30 29 26 27 28 26 25 24 22 21 19 18 18 18 16 15 15 16 16 14 13 13 14 13 11 11 11 11 13 13 13 14 16 17 16 17 16 15 18 23 23 20 17 14 16 19 19 19 19 19 19 19 17 18 19 21 23 24 26 26 26 26 26 25 26 27 27 28 28 29 29 29 30 31 32 33 33 33 34 34 35 35 34
27 29 30 29 28 28 27 25 24 23 21 19 17 16 16 16 15 14 14 15 15 14 14 13 13 13 11 10 10 10 11 11 11 12 13 13 14 16 15 12 15 20 21 18 14 12 15 19 19 17 17 17 19 19 19 20 22 23 23 24 26 26 25 26 26 26 27 28 28 29 29 29 30 30 31 32 33 34 35 35 36 36 37 38 37
28 28 29 30 30 29 26 25 24 22 20 19 17 15 14 14 14 14 14 15 14 14 14 13 11 11 11 10 9 9 9 9 10 11 11 10 12 15 13 9 12 19 20 16 13 13 16 20 20 18 17 18 21 23 24 24 25 24 22 22 25 25 23 23 26 27 27 27 29 31 31 31 32 33 33 34 34 35 36 36 37 38 38 39 39
28 29 30 31 31 29 26 25 23 21 20 19 17 16 14 13 14 14 14 14 14 14 13 13 12 11 10 9 8 7 8 8 9 9 9 10 10 11 12 10 11 17 19 18 18 18 19 20 21 20 21 21 22 24 25 24 22 22 22 21 22 21 18 17 19 23 22 21 21 25 28 29 30 31 33 34 34 36 37 38 38 38 38 38 37
30 32 31 31 30 28 26 24 22 21 20 19 18 17 15 14 14 13 14 14 15 15 15 14 13 11 9 8 7 6 6 6 7 8 9 9 9 9 12 12 11 14 16 17 18 19 20 20 19 19 20 20 18 19 22 22 20 20 20 19 19 19 19 17 19 23 23 19 17 18 23 27 26 27 29 30 30 32 34 35 35 36 36 35 35
29 32 33 31 29 27 25 24 22 21 20 19 18 17 16 15 14 13 15 16 16 16 15 14 13 12 10 9 8 7 7 6 6 7 10 12 11 10 11 11 10 10 9 8 8 9 13 15 16 15 14 12 10 9 11 15 16 16 16 18 19 19 20 20 23 25 24 21 18 17 21 25 25 26 27 27 25 25 26 26 27 27 28 29 30
28 32 34 31 29 27 26 25 23 22 20 18 17 16 15 15 14 14 15 16 17 16 14 13 12 12 11 10 9 9 9 10 10 12 14 16 16 16 16 16 15 14 12 11 9 7 6 6 7 8 7 4 4 3 3 4 6 6 7 9 10 12 14 14 16 17 17 17 17 15 17 20 21 21 23 22 19 19 18 19 20 21 22 23 25
27 30 32 30 28 27 25 24 23 21 19 18 16 16 15 15 15 15 15 16 17 16 14 12 12 11 11 9 9 9 9 10 12 13 15 17 17 16 16 15 14 13 12 12 11 10 9 8 7 8 7 5 4 4 3 2 2 1 2 2 2 4 5 6 7 9 10 11 12 10 12 14 16 18 20 19 18 18 19 20 23 23 23 23 22
26 27 29 28 26 24 22 22 22 21 18 17 16 15 15 16 16 16 16 17 18 17 15 14 14 13 12 11 10 10 10 11 12 12 12 13 15 14 14 14 13 11 11 12 12 11 9 8 8 7 5 4 3 2 1 0 1 2 2 3 3 4 5 7 8 10 11 11 11 11 13 16 16 18 20 20 20 22 22 23 24 24 23 23 22
25 25 26 26 24 22 20 20 20 20 18 16 15 14 14 15 16 17 18 18 19 19 18 17 17 16 15 14 13 13 14 14 14 13 12 12 13 14 15 15 14 13 13 13 12 11 10 9 8 7 6 4 3 2 2 1 2 3 4 4 5 6 7 7 7 9 10 11 10 11 14 16 15 17 19 20 21 21 20 19 20 20 21 21 22
26 25 26 27 24 22 21 19 19 19 18 17 16 16 15 15 17 19 20 21 22 22 21 20 18 17 17 15 14 14 15 15 14 14 13 12 13 14 14 14 13 13 12 10 8 8 8 7 7 7 7 6 6 5 5 4 4 4 4 3 3 4 4 3 4 6 9 7 6 7 9 11 12 14 17 19 19 17 15 14 14 16 17 19 20
27 26 25 27 26 23 21 21 20 19 19 19 18 18 19 18 19 20 22 23 24 23 22 21 19 17 16 15 14 13 14 14 13 12 11 10 11 11 10 10 11 11 10 8 7 7 7 7 8 8 8 8 7 7 7 7 7 7 8 7 7 6 5 5 4 5 4 3 4 8 9 9 10 11 13 13 12 10 9 10 13 16 17 19 20
Wind_Direction
191 186 185 184 185 184 177 174 170 170 170 163 159 160 166 170 171 170 165 156 151 158 162 163 167 166 157 150 149 150 151 148 147 150 150 148 149 153 148 144 150 143 134 135 132 122 116 116 116 116 119 121 117 110 109 111 110 109 103 98 94 92 89 87 86 85 83 81 80 82 81 80 80 79 83 88 87 81 78 76 74 70 70 73 71
193 189 186 183 183 179 176 178 176 175 176 173 169 166 168 171 173 172 171 176 180 175 174 174 173 171 165 160 159 157 158 154 152 154 154 154 153 156 154 148 144 137 137 137 133 128 122 124 127 130 133 128 120 114 111 108 105 103 99 98 96 94 93 90 89 87 84 82 79 77 77 76 77 76 77 83 87 85 81 77 77 72 69 72 70
197 192 186 182 179 174 172 177 179 177 174 178 178 176 176 179 181 180 182 190 197 194 185 183 179 174 173 172 168 165 163 158 155 157 157 158 156 153 150 143 140 142 145 138 131 131 130 132 132 131 129 122 119 118 114 109 106 104 102 100 97 94 93 92 90 88 84 81 77 75 75 75 75 73 71 73 78 86 87 83 81 78 72 71 69
203 195 187 181 178 174 170 170 175 174 170 175 181 182 185 189 191 190 191 196 206 203 194 192 185 177 178 178 174 171 169 162 158 157 156 157 155 151 147 145 148 150 148 142 136 132 128 125 123 121 118 117 121 121 118 113 109 104 100 96 91 87 85 85 86 85 84 81 77 74 74 75 75 73 71 69 70 78 86 87 87 86 80 75 73
209 199 189 182 178 175 171 167 169 170 168 169 175 183 189 193 198 195 191 196 202 196 194 195 188 182 182 182 178 176 173 166 159 155 153 153 154 154 151 149 149 144 139 136 134 130 123 120 121 120 122 128 129 124 118 112 108 102 96 89 83 81 77 79 85 83 82 85 82 77 76 78 79 79 80 76 72 72 77 85 89 90 87 82 79
211 202 191 184 181 178 177 174 172 175 175 173 179 188 196 201 200 190 186 192 194 190 192 194 186 184 184 184 182 180 176 168 160 157 156 156 159 161 156 154 150 140 133 130 128 125 125 127 131 132 136 141 134 127 124 115 109 105 100 94 91 93 84 79 91 83 73 85 89 84 82 83 83 85 88 87 81 75 73 79 84 86 87 87 84
210 200 192 186 185 185 185 181 181 186 185 184 191 195 199 202 193 184 180 183 187 187 192 192 183 182 183 184 184 182 178 170 163 161 163 162 167 171 164 160 156 148 142 138 138 139 138 140 144 146 146 149 144 136 136 129 120 114 106 104 101 96 58 55 74 75 70 88 115 106 94 87 85 90 93 90 86 82 77 77 83 86 86 87 84
208 200 194 190 191 193 192 189 189 190 189 191 195 195 196 194 189 191 188 180 181 184 187 184 175 175 178 181 183 184 181 174 169 167 169 170 173 175 170 168 164 154 148 147 151 154 149 150 156 160 158 161 161 147 154 165 156 148 131 113 94 87 93 82 70 68 69 89 123 145 145 140 120 108 100 95 93 88 83 82 85 88 89 88 83
207 202 199 199 199 199 199 197 191 188 191 193 193 194 194 189 184 193 198 187 179 179 180 175 167 168 172 177 181 185 184 178 175 175 176 179 180 176 171 170 167 157 153 155 160 162 162 169 174 177 177 183 183 175 193 204 206 207 182 159 125 106 98 92 81 81 88 94 113 138 148 161 170 145 120 107 101 90 81 79 81 87 91 90 87
206 206 207 209 205 199 199 194 187 186 189 189 188 192 193 191 186 187 199 197 185 180 179 170 162 162 161 169 178 182 185 181 180 185 186 186 185 182 177 174 171 164 163 164 165 165 168 174 180 191 195 202 208 206 214 217 220 224 208 183 141 115 100 98 100 100 105 111 119 123 122 125 143 150 143 124 106 99 82 69 78 91 94 94 92
206 207 210 212 206 199 197 189 183 186 189 187 188 193 193 194 196 192 193 199 195 185 175 163 153 152 150 154 165 174 184 187 188 192 191 192 189 187 187 185 180 176 173 173 171 168 169 167 172 191 196 202 218 222 225 228 224 216 193 158 133 120 105 101 144 150 154 168 157 138 136 129 118 136 151 144 121 108 85 64 74 94 99 97 90
206 208 210 210 207 201 199 192 188 192 197 195 194 199 199 195 198 196 188 184 183 177 170 160 142 130 132 136 143 158 177 187 193 197 196 199 195 190 193 190 184 181 178 180 181 176 175 172 173 184 184 190 206 208 215 222 196 166 157 145 131 126 114 89 130 168 194 199 203 204 197 191 149 136 149 149 130 108 93 84 87 92 91 91 87
208 209 211 210 208 204 202 199 196 199 207 203 197 202 203 196 193 192 189 175 162 164 167 158 136 119 118 121 126 141 160 179 194 203 204 208 208 199 194 189 182 179 178 183 187 183 181 176 175 184 179 180 184 174 175 173 148 140 137 133 131 132 111 105 118 132 135 126 131 120 106 159 159 143 140 141 130 111 104 102 97 90 85 86 88
210 211 212 211 209 205 204 206 204 204 209 204 197 201 201 196 190 186 187 177 165 166 168 158 137 128 126 116 115 128 147 175 195 214 216 217 221 213 194 186 180 176 180 187 191 187 175 167 171 180 177 175 170 153 141 135 132 131 131 134 151 154 117 115 120 104 90 77 72 85 93 121 139 138 137 137 128 111 105 103 98 93 88 90 92
210 211 212 212 211 209 209 211 209 203 204 200 197 200 198 196 193 188 183 172 165 170 173 167 147 132 121 115 113 111 141 186 189 213 221 221 227 221 195 190 185 181 186 192 194 183 160 156 171 175 171 169 164 151 141 136 134 136 148 163 160 134 123 117 112 99 88 78 78 94 102 112 124 130 132 130 120 109 106 104 101 98 97 98 95
209 209 211 212 212 211 212 211 207 200 199 200 199 198 197 195 194 192 184 169 162 169 175 176 164 147 125 99 89 98 204 186 150 178 211 216 226 222 209 203 191 183 190 196 196 181 162 159 166 170 169 164 163 158 150 147 149 158 177 178 146 134 132 121 110 97 87 89 95 102 108 114 121 124 125 123 117 112 109 108 107 105 105 104 100
208 208 209 211 211 210 211 209 205 201 200 203 203 200 200 197 195 193 189 180 170 171 175 180 180 172 154 137 124 155 216 149 139 158 194 197 204 209 212 204 191 188 194 199 196 183 174 170 161 166 169 165 164 164 162 162 170 182 187 170 150 143 138 124 110 99 94 101 108 111 115 119 123 125 123 119 115 114 112 114 119 122 124 122 109
209 208 208 209 210 209 210 209 207 204 202 205 207 204 201 199 198 195 194 193 180 173 178 184 189 185 169 157 156 196 177 151 146 161 174 184 189 192 198 193 194 199 195 192 192 189 188 181 169 170 170 167 168 171 176 182 188 193 183 164 152 145 137 124 110 106 105 108 113 118 123 124 125 125 121 121 119 112 105 111 121 116 108 96 77
209 208 208 208 209 209 210 211 209 205 202 204 208 208 205 200 200 199 198 199 188 180 183 185 190 194 188 179 186 235 184 166 168 164 149 186 190 188 194 196 200 203 196 192 194 197 198 192 181 176 174 171 173 181 189 191 188 184 176 163 154 147 138 126 118 115 113 115 117 124 134 137 134 132 131 133 131 105 82 98 99 89 82 79 75
211 209 208 208 209 209 210 212 210 205 202 204 208 210 209 204 200 201 203 204 201 195 191 188 192 197 197 201 237 231 186 177 179 166 135 149 175 180 195 201 201 199 199 200 200 203 206 201 191 185 184 181 183 195 201 200 195 184 177 167 160 156 147 139 134 127 123 126 130 136 146 148 145 147 149 151 152 130 121 116 101 95 90 86 83
213 211 208 208 209 209 211 213 211 208 203 204 208 210 212 209 203 203 205 207 209 208 202 198 199 198 196 203 214 184 179 184 183 169 141 143 162 174 184 188 196 196 197 200 203 209 211 209 201 195 195 194 197 207 210 207 197 185 179 175 173 167 161 158 152 142 138 138 139 145 153 153 153 162 169 175 181 159 134 117 106 103 98 92 88
211 212 210 209 209 210 213 213 212 211 206 205 209 211 212 212 209 205 205 208 210 211 211 210 207 202 198 199 189 173 171 177 182 176 156 145 162 178 176 175 185 191 195 201 204 207 210 212 207 202 204 204 209 213 212 206 193 187 185 181 184 180 175 175 169 158 155 151 146 146 149 149 160 180 189 189 176 147 128 116 109 104 96 90 86
210 213 212 211 211 212 215 216 214 213 210 209 211 214 213 211 212 209 207 209 212 213 215 216 212 206 204 204 201 194 192 196 193 185 172 156 150 162 173 176 184 191 196 204 209 205 207 211 210 210 210 210 216 219 211 201 193 190 188 183 188 198 199 195 185 173 166 161 157 155 154 157 171 186 184 174 157 138 126 118 113 108 102 96 93
210 211 211 211 213 214 217 218 217 216 214 212 212 214 215 213 213 212 209 210 215 218 217 217 215 209 205 207 212 213 213 214 205 193 187 177 164 155 165 171 182 198 197 200 208 209 211 213 213 216 217 217 223 225 218 206 201 197 191 187 193 205 211 207 193 180 169 163 160 159 162 166 171 171 163 154 146 138 133 130 126 123 119 112 106
211 209 209 210 211 213 216 218 218 218 216 213 210 209 211 212 213 213 212 213 217 221 221 222 223 216 209 208 214 218 217 218 211 200 194 180 164 154 160 170 177 190 194 198 200 208 217 219 219 219 220 224 230 229 224 217 211 205 194 190 190 197 206 205 196 185 175 169 164 161 162 162 158 152 149 148 146 143 140 139 133 127 124 119 114
219 214 211 210 211 213 216 216 216 217 215 211 207 205 207 209 211 214 216 218 219 223 226 228 227 222 215 212 215 218 216 215 213 205 197 185 170 158 153 162 176 173 185 200 199 203 215 220 224 224 223 227 232 231 227 223 218 208 196 191 189 192 199 202 198 191 185 181 175 173 171 169 165 161 160 158 156 154 147 141 133 125 120 116 116
227 224 217 212 214 216 217 217 216 215 213 208 204 205 208 209 211 214 215 217 219 223 227 228 227 224 218 217 219 221 217 214 215 214 209 202 190 173 162 150 149 170 175 194 203 211 215 217 223 225 225 227 228 231 230 224 219 209 197 193 193 194 196 200 203 199 197 194 189 187 183 178 174 169 169 172 174 170 159 150 138 127 120 113 110
226 229 225 219 218 219 220 220 218 214 211 206 205 207 210 210 211 212 214 215 217 221 224 224 225 223 220 219 221 223 222 218 218 224 220 215 207 190 176 164 157 163 180 189 205 215 216 215 217 221 225 227 226 227 229 223 217 211 203 198 199 199 194 193 200 203 202 200 196 192 186 181 177 173 174 178 180 177 168 158 143 129 122 115 109
225 229 231 226 221 222 224 222 219 214 207 204 206 208 210 210 210 211 212 212 214 217 221 223 223 221 219 218 219 222 224 220 221 229 227 219 213 204 192 181 173 163 163 199 211 209 211 214 216 218 220 222 224 225 226 220 213 213 210 205 203 202 195 191 195 201 203 201 197 191 185 182 180 177 178 180 180 180 176 168 157 145 133 123 117
227 229 231 227 223 222 220 216 217 216 207 204 207 208 209 209 210 211 210 211 214 216 220 223 221 219 217 216 218 221 223 220 223 229 228 222 218 211 202 193 186 181 175 177 209 209 204 209 216 220 219 217 217 221 225 220 214 214 216 213 209 203 198 192 192 199 202 198 194 188 184 184 182 180 179 182 185 188 189 190 186 179 165 149 130
226 226 227 226 224 223 216 204 208 219 215 206 207 209 208 209 208 208 208 210 213 215 218 221 222 219 217 216 218 219 219 219 222 227 225 222 221 215 206 199 196 197 190 174 183 210 206 209 215 219 222 218 214 216 221 220 216 216 218 219 214 206 202 198 197 201 201 197 193 187 185 186 184 183 182 186 193 198 205 211 215 220 218 217 220
227 225 226 227 222 218 211 195 198 218 219 206 205 206 204 206 207 206 207 208 210 215 216 218 220 220 217 217 216 215 216 218 220 223 222 222 222 218 212 205 202 205 201 189 183 200 205 214 219 219 222 222 217 217 219 217 216 216 218 222 219 211 206 204 205 206 203 201 198 194 195 196 197 199 200 206 212 218 227 233 239 248 254 261 267
227 223 222 224 217 210 205 194 195 212 214 202 200 202 200 201 203 204 206 206 208 212 213 213 214 215 216 215 214 215 217 220 222 223 223 223 222 219 215 208 204 206 207 204 201 188 197 211 219 221 223 223 219 219 219 217 215 213 215 219 219 216 212 210 212 214 212 211 209 208 211 214 218 223 226 232 238 242 247 249 253 260 265 271 275
224 221 215 213 211 207 201 194 196 205 205 198 198 199 198 199 199 201 203 203 205 208 210 212 211 212 216 215 215 217 218 222 225 225 224 223 222 219 214 210 207 207 210 211 208 194 195 208 216 220 223 223 221 219 220 219 216 214 214 216 219 218 215 216 218 220 222 222 221 222 225 228 232 238 242 247 251 254 256 257 260 263 266 270 272
219 218 211 207 208 206 201 197 196 200 201 198 198 197 198 198 196 198 202 202 204 206 209 211 209 212 217 217 220 221 220 222 222 222 223 221 221 221 216 213 209 208 212 213 213 215 211 211 216 221 222 222 221 220 221 221 219 219 218 218 221 222 220 221 222 224 228 230 231 233 236 239 241 245 250 255 259 260 260 261 261 262 265 267 268
213 213 206 207 208 203 202 201 198 198 199 196 196 197 199 199 196 197 201 201 202 205 207 208 208 211 215 218 222 222 222 224 221 221 222 220 224 223 215 211 208 211 216 215 220 232 228 219 220 224 225 224 222 220 221 221 220 222 224 224 225 227 228 228 228 229 231 234 237 239 242 245 248 251 256 260 263 264 263 264 263 263 264 266 267
205 202 199 206 208 202 204 205 198 194 193 192 195 197 199 200 198 199 202 201 202 205 208 208 209 213 217 220 221 220 222 225 226 227 225 225 229 221 210 211 209 211 220 220 223 230 231 228 225 222 223 223 220 219 220 220 220 222 225 227 228 231 233 234 235 236 236 237 239 242 245 247 250 253 258 262 264 264 264 265 266 266 267 267 268
194 193 197 201 198 200 204 201 193 191 191 191 194 195 195 197 197 199 202 205 206 208 212 214 215 217 221 224 223 220 221 222 225 228 228 229 227 214 209 216 213 210 216 222 224 227 230 234 229 220 220 220 216 217 219 221 223 223 224 227 230 233 235 237 239 241 241 242 243 245 248 250 253 256 259 262 263 264 266 267 267 268 268 268 269
186 188 194 191 190 199 201 194 190 191 191 191 192 192 192 192 193 197 201 204 207 209 213 216 216 218 221 226 230 228 224 225 224 224 228 228 224 219 221 224 218 213 213 217 224 229 232 232 226 219 220 218 214 216 218 221 226 229 229 229 231 233 235 238 242 244 244 246 248 250 252 253 256 257 259 261 262 264 265 266 267 268 268 268 268
186 187 188 184 188 197 194 189 189 189 187 189 189 188 190 190 193 199 201 202 205 205 208 213 215 218 223 230 239 239 234 233 228 225 227 224 221 223 224 226 223 216 212 215 223 235 236 228 222 219 217 215 211 211 216 218 221 229 231 232 234 237 236 238 243 246 247 249 250 253 254 255 256 257 258 260 261 261 262 263 265 266 267 267 267
185 186 185 184 188 189 185 184 185 183 184 184 181 182 186 188 193 196 195 196 199 201 206 213 217 219 224 230 240 242 237 235 233 234 235 230 229 227 216 217 224 213 207 211 219 234 232 220 217 215 211 210 207 203 208 215 219 227 230 230 235 240 242 243 248 250 251 253 254 256 257 258 258 259 260 261 262 262 263 264 265 266 267 268 268
184 184 183 185 186 183 179 178 177 177 178 175 171 174 177 181 188 189 185 185 190 196 200 201 202 208 217 226 236 237 231 229 229 235 238 233 237 234 218 219 228 213 205 208 217 234 230 216 214 211 205 209 212 210 215 221 225 229 229 229 234 241 245 250 255 257 256 258 260 262 265 266 263 264 265 265 265 266 267 268 269 270 271 272 270
182 184 181 179 178 177 175 172 170 169 169 167 166 166 164 167 176 183 184 184 188 190 186 181 184 194 206 216 227 227 223 223 224 228 229 219 222 226 219 222 226 213 209 213 224 238 235 219 215 212 208 214 218 217 221 225 227 229 230 232 237 242 246 253 263 268 268 269 269 270 275 277 274 272 273 273 274 274 275 275 276 276 276 276 274
174 177 176 170 167 169 168 165 163 162 161 162 164 165 164 163 166 172 176 176 178 179 178 181 187 191 196 197 197 198 202 209 210 209 207 198 195 206 211 209 205 206 212 220 231 243 238 222 215 213 216 223 226 225 226 229 235 239 241 243 244 246 249 249 256 267 274 279 278 275 280 285 283 280 281 282 284 284 284 285 285 285 285 284 283
163 164 166 164 161 161 161 158 157 155 154 155 158 162 165 165 166 168 167 169 175 179 182 188 188 186 186 183 174 164 156 153 157 163 167 167 166 169 171 164 160 168 182 192 208 229 231 225 219 213 217 227 230 231 232 233 240 248 250 253 255 254 254 253 259 269 277 281 282 277 278 284 286 282 283 287 291 294 295 297 297 298 297 295 292
155 152 155 158 156 155 156 155 152 150 149 150 154 160 164 165 169 170 167 171 179 183 185 187 183 179 177 177 173 161 145 136 134 138 144 147 146 141 137 132 129 125 123 122 123 128 147 181 191 177 166 172 178 173 184 205 227 241 242 249 254 254 256 260 267 276 280 284 287 280 277 286 291 286 286 293 299 301 303 305 305 306 306 302 296
147 144 146 150 150 149 151 153 152 149 148 149 153 160 165 168 172 171 168 171 175 178 177 174 169 163 159 164 170 167 157 148 143 141 144 147 147 142 133 124 119 117 114 108 105 106 109 111 119 121 115 114 127 133 138 150 163 188 205 226 246 253 263 271 279 287 291 293 296 287 278 290 298 292 292 300 302 299 301 303 302 303 303 299 294
136 135 136 139 140 141 145 151 152 149 147 149 154 159 165 170 173 170 167 166 165 163 158 153 148 142 140 143 145 145 148 150 149 148 149 152 152 146 134 124 120 118 110 99 95 95 97 101 105 105 105 103 101 105 116 157 253 269 276 288 297 296 297 299 295 296 298 300 304 296 284 288 296 294 295 301 300 298 298 297 297 298 296 294 293
129 127 126 127 128 131 136 143 147 146 144 147 154 159 164 171 173 168 162 158 152 147 141 138 138 134 130 130 130 129 128 129 133 139 148 154 150 140 130 125 122 116 106 96 94 94 93 95 99 99 99 98 92 92 84 21 319 305 301 297 297 298 305 312 303 296 299 301 302 294 281 282 292 295 297 301 301 299 299 297 294 293 291 290 290
129 125 123 122 122 122 124 129 136 140 140 143 152 158 162 169 171 165 159 151 143 137 134 131 131 130 126 125 125 125 121 119 122 130 141 151 146 136 131 126 119 111 104 99 99 101 99 96 97 99 101 98 94 90 79 65 49 24 11 8 346 320 325 338 313 303 309 311 309 303 287 284 295 300 302 306 304 301 300 300 300 299 296 294 290
125 123 122 121 119 116 115 118 125 132 137 143 152 157 158 162 163 159 155 148 138 133 131 129 126 125 124 121 119 117 115 116 122 126 132 143 140 132 131 130 119 106 101 104 109 115 118 115 112 109 105 96 89 84 76 67 56 45 41 40 30 19 19 20 357 330 320 304 317 325 313 305 311 313 311 311 306 300 302 305 306 307 304 300 295
Height
822 823 824 825 826 827 828 829 830 831 831 831 832 832 833 834 835 836 837 837 838 838 839 840 840 841 842 843 843 844 844 844 844 844 845 845 846 847 847 848 848 848 849 849 850 850 848 848 848 850 850 851 850 850 851 851 851 852 852 852 852 852 851 851 851 851 851 851 851 850 850 850 849 849 848 848 848 848 848 848 848 847 847 846 846
822 823 824 825 826 827 828 829 830 831 832 832 832 833 833 834 835 836 837 837 838 839 839 840 841 841 842 843 844 844 845 845 845 845 845 846 847 848 848 848 849 849 849 850 850 850 850 849 850 850 851 851 851 851 851 852 852 853 853 853 853 853 852 852 852 852 852 852 852 852 851 851 851 850 850 849 849 849 849 849 849 849 848 848 847
822 823 823 825 826 827 827 829 830 831 831 832 832 833 834 834 835 837 838 838 838 839 840 841 841 842 842 843 844 844 845 845 845 846 846 847 848 848 849 849 850 850 850 850 851 851 851 850 850 851 851 851 852 852 852 852 853 854 854 854 854 854 854 854 854 854 854 854 854 853 853 853 852 852 851 851 850 850 850 850 850 850 850 849 849
823 823 823 824 825 826 827 828 830 830 831 832 832 833 834 835 836 837 838 838 838 839 840 841 842 842 842 843 844 845 845 846 846 846 847 847 849 849 850 850 850 851 851 851 851 851 851 851 851 852 852 852 852 852 853 854 854 855 855 855 855 855 855 855 855 855 855 855 855 854 854 854 854 853 853 852 852 851 851 851 851 851 851 851 851
824 824 824 825 825 826 827 828 829 830 831 831 832 833 833 834 836 837 837 838 838 839 840 841 842 843 843 843 844 845 846 846 846 847 847 848 849 850 850 850 851 851 851 851 852 852 852 852 853 853 854 854 854 854 854 855 856 856 856 856 856 856 856 856 856 856 856 856 855 855 855 855 855 854 854 853 853 853 853 852 852 852 852 852 852
824 825 824 825 825 826 827 828 829 830 831 831 832 833 833 834 835 837 837 838 838 839 840 841 842 843 844 844 845 846 846 847 847 847 848 849 850 851 851 851 851 852 852 852 852 853 853 853 854 854 855 855 855 855 856 856 857 857 857 857 857 857 857 857 856 856 856 856 856 856 856 856 856 855 855 854 854 854 854 854 853 853 853 853 853
824 824 824 825 825 826 827 828 829 830 830 831 832 832 833 834 835 836 837 838 839 840 841 841 842 843 844 845 845 846 847 847 848 848 849 850 851 851 851 852 852 852 852 853 853 854 854 854 855 855 855 856 856 857 857 857 858 858 858 858 858 858 857 857 857 857 857 857 857 857 857 857 857 856 856 856 855 855 855 855 854 854 854 854 854
823 824 824 824 825 826 827 828 829 829 830 831 832 832 833 834 835 836 837 838 839 840 841 842 842 843 844 845 846 846 847 848 848 849 850 851 851 852 852 852 852 852 853 853 854 854 855 855 855 856 856 856 857 857 858 858 858 859 859 858 858 858 857 857 857 857 857 857 857 857 857 857 857 857 857 857 857 856 856 856 856 855 855 855 856
822 823 823 824 825 825 826 827 828 829 830 831 832 832 833 833 835 836 837 838 839 840 841 842 843 844 845 845 846 847 847 848 849 849 850 851 852 852 853 853 853 853 853 854 854 855 855 856 856 856 857 857 857 858 858 858 859 859 859 859 858 858 858 858 858 858 858 858 858 858 858 858 858 858 858 858 858 858 858 857 857 857 857 857 857
821 822 823 824 824 825 825 827 828 829 829 831 832 832 833 833 834 836 837 838 839 840 841 842 843 844 845 846 846 847 848 849 849 850 851 851 852 853 853 854 854 854 854 854 855 855 856 856 856 856 856 857 858 858 858 858 859 859 859 859 859 859 859 859 859 859 859 859 859 858 858 858 858 858 859 859 859 859 859 858 858 858 858 858 858
820 821 822 823 824 824 825 826 827 827 828 829 831 832 832 833 834 835 837 838 838 839 840 841 843 844 845 846 847 847 848 849 850 850 851 852 852 853 853 854 854 854 854 854 855 856 856 856 856 856 857 857 857 858 858 858 858 859 859 859 859 859 859 859 859 859 859 859 859 859 859 859 859 859 859 860 860 860 860 860 859 859 859 859 859
819 820 821 822 823 823 824 825 826 826 826 827 829 830 831 832 834 835 836 837 838 838 839 840 842 844 846 847 847 848 849 849 850 851 852 852 852 852 853 853 854 854 854 855 855 856 856 856 856 856 857 857 857 858 859 859 858 859 859 860 860 860 860 860 860 860 860 860 860 860 860 860 860 860 860 861 861 861 861 861 860 860 860 860 861
818 819 820 821 822 822 823 824 825 825 825 825 827 829 830 832 833 834 835 836 837 838 839 839 841 844 846 847 848 849 850 850 851 851 852 852 852 851 852 853 854 854 855 855 856 856 856 856 856 857 857 857 858 858 859 859 858 859 860 860 860 860 860 860 860 860 860 861 861 860 860 860 860 861 861 862 862 862 862 862 862 862 862 862 862
816 817 818 819 820 821 822 823 824 825 825 825 826 828 829 831 832 833 834 835 836 837 838 839 840 843 845 847 849 850 850 851 851 852 852 852 852 851 852 853 854 855 855 856 856 856 857 857 857 857 857 858 858 859 859 859 859 860 860 861 861 861 861 861 861 861 861 861 861 861 861 860 861 861 862 863 863 863 863 863 863 863 863 863 863
814 815 816 817 819 820 820 821 822 824 824 824 826 827 829 830 831 832 833 834 835 836 838 838 839 842 845 847 849 850 851 851 851 852 852 852 852 852 852 853 854 855 855 856 857 856 857 857 857 857 858 858 859 859 860 860 860 861 861 861 861 861 862 861 861 862 862 862 863 862 862 861 862 863 863 864 864 864 864 864 864 864 864 864 864
812 813 814 815 817 818 819 820 821 822 823 824 825 827 828 829 830 830 830 832 834 836 837 838 838 840 844 848 849 851 852 851 851 852 852 852 852 852 853 854 854 855 855 856 857 857 857 857 857 858 858 859 859 860 860 861 861 862 862 862 862 862 862 862 862 863 863 864 864 863 863 863 863 864 865 865 866 866 866 866 866 866 866 865 865
810 811 812 813 815 816 817 819 820 821 822 823 825 826 827 828 828 828 829 829 831 834 836 837 838 838 840 844 848 851 852 850 851 852 852 852 853 853 853 854 854 855 855 856 856 856 857 857 858 858 858 859 860 860 861 862 862 863 863 863 863 863 863 863 863 864 864 865 865 865 865 865 865 866 866 867 867 867 867 867 867 867 867 866 866
808 809 810 812 813 815 816 817 819 820 821 822 824 825 826 826 826 827 827 828 829 832 834 836 838 839 839 840 843 846 847 849 851 853 852 852 853 853 853 854 855 855 856 856 856 856 857 857 858 858 859 859 860 861 862 862 863 863 863 864 864 864 864 864 864 865 866 866 866 866 866 867 867 867 868 868 868 868 868 868 868 868 868 867 867
807 808 809 810 812 813 815 816 817 819 820 821 822 824 825 825 826 826 826 827 828 830 832 834 836 838 839 840 841 842 843 846 848 850 852 852 852 853 854 854 855 855 856 856 856 857 857 857 858 859 859 860 860 861 862 862 863 864 864 864 865 865 865 865 866 866 867 867 867 867 867 868 868 868 868 868 868 869 869 869 868 868 868 868 868
805 806 808 809 810 812 813 814 816 818 819 820 820 822 823 824 825 825 825 826 827 828 830 833 834 836 838 839 841 842 843 844 845 846 849 851 852 852 853 854 854 855 856 856 857 857 857 858 858 859 860 860 861 861 862 862 863 864 864 865 866 866 866 866 867 867 867 868 869 869 869 869 869 868 868 868 868 869 868 868 869 869 869 869 869
804 805 806 808 809 811 812 813 814 816 818 818 819 820 822 823 823 824 824 825 827 828 829 831 832 834 836 838 840 841 843 844 845 846 847 849 851 851 852 853 854 855 856 856 857 857 858 858 859 859 860 861 861 861 862 863 863 864 865 866 866 867 867 867 867 867 868 869 869 870 869 869 869 869 869 869 869 869 869 869 869 869 869 869 869
802 804 805 806 808 809 811 812 813 815 816 817 817 818 820 821 821 822 823 824 826 827 828 830 832 833 835 837 838 840 842 843 845 845 846 848 849 850 851 852 853 854 855 856 856 857 858 858 859 860 861 861 862 862 862 863 863 864 865 866 867 867 868 868 868 868 868 869 869 870 870 870 870 870 870 870 870 869 869 869 869 869 869 869 869
801 803 804 805 806 808 809 810 811 813 814 815 815 817 818 819 820 821 822 824 825 826 828 829 831 833 834 836 837 838 839 840 841 843 844 846 848 850 851 852 853 854 854 856 856 857 858 859 859 860 861 861 862 862 862 863 864 864 865 866 867 868 869 869 869 869 869 869 870 870 871 871 871 871 871 871 870 870 869 869 869 869 869 870 870
800 801 801 803 804 806 807 809 810 811 812 813 814 815 817 818 819 820 822 823 824 826 827 829 830 832 833 835 836 837 838 838 839 841 842 843 845 848 850 852 853 854 854 855 856 857 857 858 859 860 861 861 862 862 863 863 864 864 865 866 867 868 869 869 869 870 870 870 870 871 871 871 871 871 871 871 871 870 870 870 869 869 869 870 870
799 798 799 800 802 804 806 807 808 809 810 812 813 814 816 817 818 820 821 822 824 825 827 828 829 831 832 834 835 836 837 838 839 840 842 843 844 847 850 851 853 853 854 855 856 857 857 858 859 860 860 861 862 862 863 863 864 864 865 866 866 867 869 870 870 870 870 870 871 872 872 872 872 872 872 872 872 871 871 870 870 870 870 870 870
797 797 797 799 800 802 803 805 806 808 809 810 812 813 815 816 818 819 820 822 823 825 826 828 829 830 832 833 834 835 837 837 839 840 841 842 843 845 848 851 853 853 854 855 856 856 857 858 859 859 860 861 861 862 863 863 864 864 865 866 866 867 868 870 870 870 871 871 871 872 872 872 872 872 872 873 872 872 871 871 870 870 870 870 871
795 798 798 798 799 800 802 804 806 807 808 809 810 812 814 816 817 818 820 821 823 824 826 827 828 830 831 832 833 834 836 837 838 839 840 840 841 843 845 849 852 854 854 855 855 856 856 857 858 859 860 861 861 862 863 863 864 864 865 866 866 867 868 870 871 871 871 871 871 872 872 872 872 872 872 873 873 873 872 872 871 871 870 870 871
793 798 800 799 799 800 801 803 805 806 807 808 809 811 813 814 816 818 819 820 822 823 825 826 827 829 830 831 832 833 835 836 837 838 839 840 841 842 843 844 848 853 854 855 855 855 855 856 857 858 859 860 861 862 863 863 864 864 865 865 866 867 868 869 871 871 872 872 872 872 872 872 872 872 872 873 873 873 873 872 872 871 871 871 871
792 796 800 800 799 799 800 802 804 805 806 807 809 810 812 813 815 816 818 819 821 822 824 826 827 828 829 830 831 832 833 835 836 837 838 839 840 841 842 842 844 848 852 854 854 853 853 854 855 856 858 859 860 861 862 863 864 865 865 865 866 866 867 868 870 871 872 872 872 872 872 872 872 872 872 873 873 873 873 873 873 872 872 871 871
792 796 800 799 798 798 798 801 804 805 806 807 808 809 811 812 814 815 817 819 820 822 823 825 826 827 828 829 830 831 832 833 835 836 837 838 839 840 841 842 843 844 846 849 851 851 852 853 854 855 856 858 859 860 862 863 864 864 865 865 865 866 866 867 869 870 871 871 872 872 872 872 872 872 872 873 873 873 873 873 873 873 872 871 871
792 794 797 798 797 798 798 799 802 806 806 806 807 808 810 811 813 815 817 818 820 821 823 824 825 826 827 828 829 830 831 832 833 835 836 837 838 840 841 842 843 843 844 846 849 850 850 851 852 854 855 856 858 859 861 862 863 864 864 865 865 865 866 867 868 869 870 871 871 871 872 872 872 872 872 873 873 873 873 873 873 873 872 871 871
790 791 794 795 795 796 797 798 801 805 806 805 806 808 809 811 812 814 816 818 819 821 822 823 824 825 826 827 828 829 830 832 833 834 835 836 837 839 840 841 842 844 844 845 847 848 849 850 852 853 854 856 857 858 860 861 862 863 864 865 865 865 866 867 867 868 869 870 871 871 871 871 872 872 872 872 872 872 873 873 872 872 872 871 871
789 789 791 792 793 795 797 797 799 804 805 804 805 807 808 810 811 813 815 817 819 820 821 822 823 824 825 826 828 829 830 831 832 833 834 835 836 838 839 841 842 843 845 846 847 848 849 851 852 853 853 855 856 857 859 860 861 862 863 864 865 865 865 866 867 868 869 869 870 870 871 871 871 871 871 871 872 872 872 872 872 872 872 871 871
787 787 788 791 793 795 796 797 799 802 804 804 805 806 807 809 810 812 814 816 818 819 820 821 822 823 824 826 827 828 829 830 831 832 833 834 835 836 838 840 841 842 844 845 847 848 849 850 851 852 853 854 855 856 858 859 859 861 861 862 863 864 865 865 866 867 868 868 869 869 870 870 870 870 870 870 871 871 871 871 871 871 871 870 870
784 785 786 790 793 795 796 797 799 801 802 803 804 805 806 808 809 811 813 815 816 818 819 820 821 822 824 825 826 827 828 829 830 831 832 833 834 835 837 838 840 842 843 845 846 848 849 849 850 850 851 852 854 855 857 858 859 860 861 861 862 863 863 864 864 865 866 867 867 868 868 868 869 869 869 869 869 869 869 869 870 869 869 869 869
783 783 785 790 794 794 797 799 799 799 801 802 804 805 806 807 809 810 812 814 815 817 818 819 820 822 823 824 825 826 827 828 829 830 831 832 833 834 836 838 840 842 844 845 846 847 847 848 848 849 850 851 853 854 856 857 858 859 860 861 861 862 862 862 863 863 864 865 866 866 867 867 867 867 867 867 867 867 867 867 868 868 867 867 867
781 782 784 790 792 793 797 799 798 799 800 801 803 804 806 807 808 809 811 813 814 815 817 818 819 821 822 823 823 825 826 826 827 828 829 831 832 833 836 838 839 841 843 844 845 846 846 846 847 848 849 850 852 853 854 856 857 858 859 860 860 860 861 861 861 862 863 864 864 864 864 865 865 865 865 865 865 865 865 865 865 865 865 865 865
779 782 785 789 791 794 798 798 798 799 800 801 802 804 805 806 807 809 810 812 813 814 815 817 818 819 820 821 822 824 824 825 826 827 828 829 830 832 834 836 837 839 840 842 844 844 845 845 845 846 847 848 850 851 853 855 856 856 857 858 859 859 859 859 859 860 861 861 862 862 862 862 862 863 863 863 863 863 863 863 863 863 863 863 863
779 783 787 789 791 795 797 796 797 798 799 800 802 803 804 805 806 808 809 811 812 813 814 816 817 818 819 821 822 822 823 824 825 826 827 828 829 830 832 834 836 837 839 841 842 842 843 844 845 845 846 847 848 850 852 854 855 856 856 857 857 856 857 857 857 857 858 859 859 859 860 860 860 860 860 860 860 860 860 860 860 860 860 860 860
778 783 786 787 790 794 795 795 796 797 798 800 800 802 803 804 806 807 808 810 811 812 814 815 816 818 819 820 821 822 822 823 824 825 826 827 828 829 831 833 834 835 837 839 839 840 841 842 843 844 845 846 847 849 851 853 854 854 854 855 854 854 854 854 854 855 856 856 857 857 857 857 857 857 857 857 857 857 857 857 857 856 856 856 856
777 781 783 785 788 791 793 794 795 796 797 799 799 801 802 803 804 806 807 809 810 811 813 814 816 817 818 819 820 821 822 823 824 825 825 827 828 828 830 832 832 833 835 837 838 839 840 841 842 843 844 845 846 848 849 850 850 850 851 852 852 851 852 853 853 853 854 854 854 854 854 854 854 854 854 854 854 854 854 854 853 853 852 853 853
775 779 781 784 787 789 791 793 793 794 796 797 799 800 801 802 803 805 806 808 809 811 812 814 815 817 818 819 820 820 822 822 823 824 825 827 828 828 830 831 831 832 834 835 837 838 839 840 840 841 842 843 844 845 845 846 847 848 849 850 849 850 851 851 850 851 852 852 852 852 851 852 852 852 852 851 851 851 851 850 850 850 850 850 851
775 778 781 784 786 788 790 791 792 793 794 796 798 799 800 801 802 804 805 807 808 810 812 813 815 816 817 819 819 820 821 822 823 824 825 827 828 828 829 830 831 832 833 835 836 837 838 838 838 839 840 840 841 843 844 845 846 847 847 848 848 849 850 851 849 848 849 851 851 850 848 849 849 849 849 848 848 847 847 847 847 847 847 847 847
775 778 781 783 785 787 789 790 791 792 793 795 797 799 800 801 802 803 805 806 808 810 811 813 814 816 817 818 819 820 821 822 823 824 825 826 827 828 828 829 830 832 833 834 835 835 835 836 837 838 839 840 841 842 843 844 845 846 846 847 847 848 849 849 848 847 847 848 849 848 846 846 846 846 845 845 845 845 845 844 844 843 843 843 842
775 778 780 783 785 786 787 788 790 792 793 795 797 798 800 801 802 803 804 806 808 809 811 812 814 815 817 818 819 820 821 822 822 823 824 825 826 827 828 829 830 831 832 833 833 834 834 835 836 837 839 840 841 842 843 844 844 845 845 845 846 846 847 847 846 846 846 847 847 846 844 844 844 843 842 843 843 843 842 842 841 840 840 839 839
776 777 779 782 784 785 787 788 790 792 794 796 797 798 800 801 802 803 804 806 808 809 811 812 814 815 817 818 820 821 822 823 823 823 824 825 826 827 828 829 830 831 832 832 833 833 834 835 836 838 839 840 841 841 842 843 843 844 844 844 845 845 845 845 845 845 845 845 845 845 843 842 843 841 840 841 840 840 839 839 838 838 837 837 836
777 777 779 782 783 785 787 788 790 792 794 796 798 799 800 801 802 803 804 806 808 809 811 813 814 816 817 819 820 821 822 823 824 825 825 826 827 828 829 829 830 832 832 833 834 834 835 836 837 838 839 840 840 841 841 842 842 843 843 844 844 844 844 844 844 843 844 844 844 843 842 841 842 840 838 838 838 837 837 836 835 835 834 834 833
778 779 780 783 784 786 788 789 791 793 795 797 798 799 800 801 802 803 805 806 808 809 811 813 815 816 818 819 820 821 822 823 824 825 826 827 828 828 829 830 831 833 834 834 835 836 836 837 838 839 840 840 841 841 841 842 842 842 842 843 843 843 842 842 842 841 842 842 842 842 840 839 840 838 836 836 835 834 834 834 833 832 831 831 830
781 783 783 784 786 788 790 791 792 794 796 798 799 800 801 801 802 803 805 806 808 810 812 814 815 817 819 820 821 822 822 823 824 826 827 827 828 829 829 830 832 833 834 835 836 836 837 838 838 839 840 840 841 841 841 841 841 841 842 842 842 842 841 841 841 840 841 841 841 841 840 838 838 837 835 834 833 832 831 831 831 830 829 828 828
785 786 785 786 788 791 793 793 794 795 796 799 800 801 802 803 803 804 805 807 809 811 813 815 816 818 819 821 822 823 823 824 825 826 827 828 829 830 830 831 832 833 834 835 836 836 837 838 838 839 840 840 841 841 841 841 841 840 841 841 841 841 841 841 841 840 840 840 839 839 838 837 837 836 834 832 830 829 830 829 829 828 828 827 826
787 788 788 788 789 792 794 795 796 797 798 800 801 802 803 804 804 805 806 807 810 812 814 815 817 818 820 821 822 823 824 825 826 827 828 829 829 830 831 831 832 833 834 835 836 837 837 838 839 839 840 840 841 841 840 840 840 840 840 840 840 840 840 840 840 839 839 839 838 837 837 836 835 835 834 832 829 828 828 828 828 827 826 825 824